Starlink 31856

operational
NORAD ID: 59960 Int'l Des: 2024-107 Owner: SPXS Country: US Constellation: starlink
LEOCIRCULAR

Über Starlink 31856

Beschreibung wird geladen...

Live-Position

3D-Globus wird geladen...

Nächste Überflüge

Höhenverlauf

Altitude vs Time

uPlot chart will show altitude changes over time

Zweizeiliger Elementsatz

1 59960U 24107R 25353.65277927 .00003240 00000-0 12154-3 0 9991
2 59960 53.1616 77.2126 0001203 82.3786 277.7351 15.30179540 87549
Epoch: 19. Dez. 2025 • Age: 25 hours

Aktueller Status

Höhe 492.7 km
Geschwindigkeit 7.62 km/s
Subsatellitenpunkt -48.59°S, 38.56°E
Startdatum 5. Juni 2024
Alter 1.5 years
Typ internet

Technische Details

Klassifizierung Payload
Masse 730.00 kg
Trockenmasse 700.00 kg
Gesamtmasse 730.00 kg
Länge 0.30 m
Durchmesser 4.10 m
Spannweite 29.00 m
Form Box + pan
Hersteller SPXS
Bus-Typ Starlink V2M
Phasenstatus In Orbit
Besitzer/Staat SPXS/US

Große Konstellationen

Loading constellations...